Location: Pea Ridge
(34.0640°N, 87.8670°W)
Time: 15:53:58
(UTC+00:00)

Transit 2A Rocket - Visible Passes

Search period start: 08 December 2025 00:00
Search period end: 18 December 2025 00:00
Orbit: 580 x 903 km, 66.7° (Epoch: 08 December)

Date Brightness Start Highest point End Pass type
(mag) Time Alt. Az. Time Alt. Az. Time Alt. Az.
08 Dec 6.1 01:24:56 10° NW 01:30:33 45° WSW 01:30:38 45° WSW visible
09 Dec 5.1 00:39:14 10° NNW 00:45:12 85° WSW 00:49:28 18° SSE visible
09 Dec 5.3 23:53:50 10° NNW 23:59:40 52° ENE 00:05:06 10° SE visible
10 Dec 7.6 01:37:31 10° WNW 01:41:32 19° WSW 01:45:23 10° SSW visible
10 Dec 6.0 23:08:45 10° N 23:13:56 30° NE 23:18:50 10° ESE visible
11 Dec 6.6 00:51:02 10° NW 00:56:23 37° WSW 01:01:24 10° S visible
12 Dec 5.5 00:05:10 10° NNW 00:11:05 71° WSW 00:16:33 10° SSE visible
12 Dec 5.2 23:19:41 10° NNW 23:25:35 63° ENE 23:31:04 10° SE visible
13 Dec 8.0 01:04:01 10° WNW 01:07:18 16° WSW 01:10:27 10° SW visible
14 Dec 7.1 00:17:10 10° NW 00:22:11 30° WSW 00:26:54 10° SSW visible
14 Dec 5.9 23:31:08 10° NW 23:36:55 58° WSW 23:42:16 10° S visible
15 Dec 7.8 12:17:55 10° SSE 12:22:19 26° ESE 12:27:00 10° NE visible
16 Dec 8.5 00:30:50 10° WNW 00:33:01 12° W 00:35:08 10° WSW visible
16 Dec 8.5 11:34:51 10° SE 11:37:14 13° E 11:39:42 10° ENE visible
16 Dec 7.7 23:43:20 10° NW 23:47:56 25° WSW 23:52:17 10° SSW visible
